Probability
0 0 0 0 0 0 0 0 0 0 0 0 0 0 0 0 0 0 0 0 0 0 0 0 0 0 0 0 0 0 0 0 0 0 0 0 0 0 0 0 0 0 0 0
0 0 0 0 0 0 0 0 0 0 0 0 0 0 0 0 0 0 0 0 1 1 0 0 0 0 0 0 0 0 0 0 0 0 0 0 0 0 0 0 0 0 0 0
0 0 0 0 0 0 0 0 0 0 0 0 0 0 0 0 0 0 0 0 1 2 1 0 0 0 0 0 0 0 0 0 0 0 0 0 0 0 0 0 0 0 0 0
0 0 0 0 0 0 0 0 0 0 0 0 0 0 0 0 0 0 0 0 1 2 2 1 0 0 0 0 0 0 0 0 0 0 0 0 0 0 0 0 0 0 0 0
0 0 0 0 0 0 0 0 0 0 0 0 0 0 0 0 0 0 0 0 1 2 3 2 1 0 0 0 0 0 0 0 0 0 0 0 0 0 0 0 0 0 0 0
0 0 0 0 0 0 0 0 0 0 0 0 0 0 0 0 0 0 0 0 0 1 2 2 1 0 0 0 0 0 0 0 0 0 0 0 0 0 0 0 0 0 0 0
0 0 0 0 0 0 0 0 0 0 0 0 0 0 0 0 0 0 0 0 0 0 1 2 2 1 0 0 0 0 0 0 0 0 0 0 0 0 0 0 0 0 0 0
0 0 0 0 0 0 0 0 0 0 0 0 0 0 0 0 0 0 0 0 0 0 1 2 3 1 0 0 0 0 0 0 0 0 0 0 0 0 0 0 0 0 0 0
0 0 0 0 0 0 0 0 0 0 0 0 0 0 0 0 0 0 0 0 0 0 1 2 3 2 1 0 0 0 0 0 0 0 0 0 0 0 0 0 0 0 0 0
0 0 0 0 0 0 0 0 0 0 0 0 0 0 0 0 0 0 0 0 0 0 0 1 3 2 1 0 0 0 0 0 0 0 0 0 0 0 0 0 0 0 0 0
0 0 0 0 0 0 0 0 0 0 0 0 0 0 0 0 0 0 0 0 0 0 0 1 2 2 1 0 0 0 0 0 0 0 0 0 0 0 0 0 0 0 0 0
0 0 0 0 0 0 0 0 0 0 0 0 0 0 0 0 0 0 0 0 0 0 0 1 1 1 0 0 0 0 0 0 0 0 0 0 0 0 0 0 0 0 0 0
0 0 0 0 0 0 0 0 0 0 0 0 0 0 0 0 0 0 0 0 0 0 0 0 0 0 0 0 0 0 0 0 0 0 0 0 0 0 0 0 0 0 0 0
0 0 0 0 0 0 0 0 0 0 0 0 0 0 0 0 0 0 0 0 0 0 0 0 0 0 0 0 0 0 0 0 0 0 0 0 0 0 0 0 0 0 0 0
0 0 0 0 0 0 0 0 0 0 0 0 0 0 0 0 0 0 0 0 0 0 0 0 0 0 0 0 0 0 0 0 0 0 0 0 0 0 0 0 0 0 0 0
0 0 0 0 0 0 0 0 0 0 0 0 0 0 0 0 0 0 0 0 0 0 0 0 0 0 0 0 0 0 0 0 0 0 0 0 0 0 0 0 0 0 0 0
0 0 0 0 0 0 0 0 0 0 0 0 0 0 0 0 0 0 0 0 0 0 0 0 0 0 0 0 0 0 0 0 0 0 0 0 0 0 0 0 0 0 0 0
0 0 0 0 0 0 0 0 0 0 0 0 0 0 0 0 0 0 0 0 0 0 0 0 0 0 0 0 0 0 0 0 0 0 0 0 0 0 0 0 0 0 0 0
0 0 0 0 0 0 0 0 0 0 0 0 0 0 0 0 0 0 0 0 0 0 0 0 0 0 0 0 0 0 0 0 0 0 0 0 0 0 0 0 0 0 0 0
0 0 0 0 0 0 0 0 0 0 0 0 0 0 0 0 0 0 0 0 0 0 0 0 0 0 0 0 0 0 0 0 0 0 0 0 0 0 0 0 0 0 0 0
0 0 0 0 0 0 0 0 0 0 0 0 0 0 0 0 0 0 0 0 0 0 0 0 0 0 0 0 0 0 0 0 0 0 0 0 0 0 0 0 0 0 0 0
0 0 0 0 0 0 0 0 0 0 0 0 0 0 0 0 0 0 0 0 0 0 0 0 0 0 0 0 0 0 0 0 0 0 0 0 0 0 0 0 0 0 0 0
0 0 0 0 0 0 0 0 0 0 0 0 0 0 0 0 0 0 0 0 0 0 0 0 0 0 0 0 0 0 0 0 0 0 0 0 0 0 0 0 0 0 0 0
0 0 0 0 0 0 0 0 0 0 0 0 0 0 0 0 0 0 0 0 0 0 0 0 0 0 0 0 0 0 0 0 0 0 0 0 0 0 0 0 0 0 0 0
0 0 0 0 0 0 0 0 0 0 0 0 0 0 0 0 0 0 0 0 0 0 0 0 0 0 0 0 0 0 0 0 0 0 0 0 0 0 0 0 0 0 0 0
0 0 0 0 0 0 0 0 0 0 0 0 0 0 0 0 0 0 0 0 0 0 0 0 0 0 0 0 0 0 0 0 0 0 0 0 0 0 0 0 0 0 0 0
0 0 0 0 0 0 0 0 0 0 0 0 0 0 0 0 0 0 0 0 0 0 0 0 0 0 0 0 0 0 0 0 0 0 0 0 0 0 0 0 0 0 0 0
Wind_Speed
4 4 4 4 6 7 7 8 8 8 7 9 6 5 4 3 3 4 4 5 5 6 6 6 5 5 5 5 5 6 6 6 6 5 4 4 4 4 3 3 4 3 3 3
2 2 3 4 6 8 7 6 6 5 8 7 4 2 2 4 5 6 6 6 6 6 6 6 7 6 6 6 5 6 6 6 4 4 4 4 4 3 3 3 3 3 4 4
2 2 0 6 8 9 7 6 8 9 9 3 2 4 6 6 7 8 8 7 7 8 8 7 8 8 7 7 5 6 5 5 4 5 5 4 4 4 4 4 3 3 3 3
2 1 6 9 4 7 7 6 6 5 4 5 6 5 4 5 7 7 7 7 7 7 7 6 6 6 6 5 6 6 5 5 5 5 5 4 4 4 3 3 3 3 3 4
3 3 6 7 3 5 6 5 5 5 4 4 1 1 3 4 6 7 7 7 7 7 6 6 6 6 6 6 6 5 5 5 5 6 5 5 5 5 4 3 3 3 3 4
4 4 6 7 3 2 4 4 4 5 4 3 3 1 5 3 3 4 4 4 5 5 5 5 5 6 7 6 6 7 7 6 5 6 6 6 6 4 3 3 3 3 2 3
5 5 7 6 3 3 5 7 4 4 5 5 6 6 4 2 2 3 3 4 5 5 6 6 6 7 7 6 7 7 5 4 4 5 6 5 4 3 4 3 3 2 2 2
4 4 7 2 3 5 6 4 2 4 4 5 4 2 1 2 2 3 2 3 5 6 5 4 6 8 7 7 6 4 5 5 4 4 4 4 5 4 4 4 4 3 2 1
7 7 4 2 4 4 2 3 3 3 3 4 2 2 1 1 2 2 3 3 4 6 5 4 5 7 8 6 5 5 5 5 4 4 3 4 5 5 4 4 3 3 2 2
3 5 4 4 3 3 2 3 3 2 2 3 3 2 2 1 1 2 2 3 3 5 5 4 4 5 5 4 5 6 6 5 4 4 3 3 3 4 4 4 4 3 3 3
4 5 3 4 3 3 3 3 2 1 1 3 4 2 3 2 2 2 2 3 4 5 5 5 4 4 3 5 6 6 5 4 4 4 4 3 3 3 5 5 5 5 5 4
6 6 4 5 5 3 2 2 1 1 2 1 2 3 2 2 2 2 2 3 4 4 4 4 4 4 4 5 6 7 5 4 4 3 3 3 3 1 1 2 3 5 4 4
5 4 4 5 4 3 2 2 1 0 1 0 0 2 2 1 1 2 2 3 4 4 4 4 4 4 4 5 6 6 6 5 4 4 4 4 3 3 2 0 1 2 2 4
3 1 3 3 3 3 2 1 1 1 1 0 0 1 2 2 2 2 2 3 3 4 4 4 4 4 4 5 6 5 5 5 5 4 4 4 4 3 3 3 2 1 1 3
3 3 4 2 1 1 1 2 2 2 2 2 1 2 2 2 2 2 1 2 3 3 3 4 4 3 4 5 6 5 5 4 3 3 3 3 3 3 3 3 2 1 0 0
2 1 1 1 1 0 1 1 1 0 1 1 1 1 1 2 2 2 2 2 3 3 3 4 4 4 4 5 5 4 4 6 5 4 3 3 3 3 3 3 3 2 2 2
1 1 1 1 1 1 1 1 2 2 1 1 1 1 2 3 3 2 1 1 2 2 2 3 3 3 4 5 5 4 3 4 6 4 3 3 3 4 3 3 3 3 3 3
3 4 3 4 3 2 1 1 1 2 2 1 2 3 3 3 2 0 0 1 2 2 1 1 2 3 4 4 4 4 4 3 3 3 3 3 3 3 3 3 3 3 1 1
1 1 1 1 2 2 2 2 2 2 2 3 3 2 1 1 1 1 2 3 2 1 2 1 1 3 3 4 5 4 4 4 3 3 3 3 2 2 2 2 2 2 2 2
2 1 1 1 0 1 2 1 2 3 3 3 3 3 2 1 1 2 2 1 1 2 1 0 1 2 2 4 5 3 4 4 4 3 3 3 3 3 2 2 2 2 2 2
1 1 1 1 0 0 2 2 3 3 2 3 3 2 1 1 1 1 2 0 2 2 1 1 1 1 1 3 4 3 4 4 4 4 3 3 3 3 3 2 2 2 2 2
1 1 1 0 0 0 0 2 3 3 3 3 2 2 2 1 1 1 0 1 2 1 0 0 1 1 1 2 3 3 3 3 3 3 3 3 3 3 3 3 3 2 2 2
1 1 1 1 1 1 1 1 2 3 3 3 2 2 2 1 1 1 1 2 1 1 0 0 1 1 1 2 2 3 3 3 3 3 3 3 3 3 3 3 3 2 2 2
1 0 0 0 1 2 2 1 1 1 2 2 1 2 2 1 0 1 1 1 2 1 0 0 1 0 1 1 1 2 2 3 3 3 3 2 2 2 2 3 2 2 2 2
0 0 1 1 2 1 1 1 2 2 2 1 1 1 1 1 1 1 0 0 1 1 0 0 0 1 1 1 1 2 2 2 3 3 2 2 2 2 2 2 2 2 2 2
0 0 0 1 1 1 1 2 1 1 1 1 1 0 0 0 1 1 0 0 0 1 0 0 0 0 1 1 1 1 1 1 1 2 2 3 3 3 2 2 3 2 2 2
1 1 1 1 1 0 1 2 2 1 1 2 1 0 0 0 0 0 0 0 0 0 0 0 0 0 1 1 1 1 1 1 1 2 2 2 2 2 2 3 2 2 2 2
Wind_Direction
221 215 191 209 207 185 186 189 194 225 229 251 246 231 230 211 177 162 166 170 177 182 183 180 179 181 181 183 179 175 172 182 196 195 186 179 180 182 175 175 184 182 175 179
251 227 215 235 224 205 210 204 211 230 252 250 246 211 201 197 182 183 188 188 187 184 181 184 186 185 180 184 182 172 177 191 190 178 175 178 181 178 173 179 178 172 179 181
241 269 43 255 225 207 204 200 189 217 234 225 215 219 212 203 194 197 199 194 190 189 189 191 190 184 186 187 173 170 179 183 180 177 178 181 173 168 178 182 176 183 187 182
165 127 226 244 235 200 201 219 207 220 230 209 216 226 226 205 197 204 202 197 195 191 190 191 184 179 175 164 167 176 180 184 182 179 183 176 166 174 178 173 178 191 195 193
151 203 265 284 245 186 186 234 215 212 234 228 216 33 298 224 199 206 202 195 194 190 184 176 174 171 160 163 170 175 187 192 188 181 177 172 176 181 174 169 183 195 194 191
158 185 231 248 267 208 135 259 245 202 214 203 129 157 259 244 209 213 200 186 179 168 156 163 172 161 158 168 174 191 200 200 188 180 177 180 185 177 168 170 187 183 190 195
185 213 253 261 284 111 155 238 252 200 195 176 187 210 238 234 216 202 189 175 161 155 165 178 167 159 165 173 194 204 193 181 174 179 182 178 169 163 160 162 161 170 184 205
167 204 246 282 120 171 220 253 234 209 197 193 215 233 218 189 190 177 169 155 154 159 174 168 160 162 171 192 202 178 165 163 171 176 177 165 158 160 156 157 161 171 174 215
191 214 243 233 216 247 238 242 235 218 221 188 186 205 206 200 187 178 173 168 160 160 160 158 167 170 183 198 171 154 154 163 170 166 167 159 160 161 158 160 165 178 179 205
239 260 267 276 285 304 279 257 255 224 194 173 177 182 176 179 185 175 171 166 160 148 150 167 178 183 190 170 153 154 162 168 162 160 161 157 158 163 165 173 180 184 189 206
241 266 295 298 290 297 314 324 349 43 159 173 159 166 171 175 195 185 173 162 158 164 168 177 173 174 167 157 152 155 164 166 164 165 166 166 172 181 183 192 187 185 197 194
224 227 211 258 282 296 315 314 319 56 27 27 160 169 166 175 203 177 168 162 156 164 168 170 165 161 159 157 156 153 156 164 167 165 163 163 163 166 222 200 198 193 190 182
233 245 235 259 282 290 274 288 312 107 154 179 288 151 147 163 188 157 151 164 171 175 173 164 158 161 163 157 154 155 161 165 163 166 167 168 171 175 192 289 177 198 206 202
247 236 260 260 261 280 284 314 358 15 12 168 164 113 122 125 140 143 169 192 174 156 154 155 156 168 168 156 154 156 156 160 160 171 173 176 182 186 186 184 196 257 255 220
264 232 231 234 245 319 8 60 57 23 17 17 69 100 121 146 165 179 174 145 138 142 153 153 158 177 164 158 160 160 157 160 162 163 168 171 170 170 178 185 191 204 203 238
269 273 189 141 146 111 75 87 99 16 32 22 44 84 153 155 153 128 112 127 140 168 179 169 181 185 166 161 156 156 162 163 157 159 164 164 165 170 176 181 186 189 202 207
194 255 273 273 246 222 192 183 177 169 127 92 60 79 101 102 90 72 63 125 145 169 180 180 193 176 163 160 157 159 158 164 159 157 170 175 177 183 184 183 190 202 213 204
220 220 210 200 200 205 217 181 134 128 132 141 93 82 90 108 127 148 90 85 81 64 30 227 178 161 162 162 159 154 154 159 164 169 173 175 182 183 180 183 192 200 210 197
321 257 240 233 217 187 189 184 165 151 120 104 96 87 84 104 119 91 80 87 90 19 304 308 136 142 164 171 157 153 154 155 159 165 165 168 168 171 176 182 186 191 184 173
346 351 13 3 356 149 162 157 138 129 117 114 105 89 51 17 59 91 90 91 230 245 269 309 137 151 172 174 162 154 158 163 167 167 165 167 176 184 187 188 185 185 185 187
309 328 12 45 330 171 160 149 141 134 125 123 124 131 147 316 38 92 104 4 305 315 331 95 112 158 182 173 158 154 162 168 170 171 174 177 180 184 186 188 188 190 190 192
257 255 251 211 90 323 156 141 142 138 126 118 117 122 119 87 49 44 338 233 263 302 354 177 183 185 157 147 159 163 167 170 172 172 174 178 180 184 188 189 193 197 195 193
254 239 224 193 184 191 93 104 131 140 143 144 147 151 150 156 163 149 296 293 275 296 351 230 242 195 126 123 155 167 170 173 176 180 184 186 187 188 190 190 192 192 192 194
308 302 285 92 95 97 88 40 69 120 121 123 145 154 148 133 4 274 219 302 327 325 352 274 280 4 105 121 148 161 173 180 183 182 180 179 180 183 186 187 188 190 188 186
81 95 108 123 125 141 160 125 89 87 95 90 80 86 137 173 187 234 275 264 285 330 341 285 15 54 103 142 157 170 177 185 183 176 176 177 182 184 190 191 189 187 185 190
101 133 181 201 191 174 160 142 136 148 129 102 40 34 63 98 137 159 144 337 269 323 320 303 284 88 138 162 172 182 183 183 182 183 181 181 183 185 190 190 188 187 184 185
34 41 53 33 15 131 144 145 156 182 186 169 182 263 247 119 115 127 119 331 310 305 308 349 69 142 162 168 169 180 178 171 175 176 174 175 178 182 182 181 185 180 176 178